Location: *
(60.1759°S, 155.0663°W)
Time: 20:16:15
(UTC+00:00)

CZ-2D R/B - Pass Details

Date: 17 September 2019
Orbit: 791 x 846 km, 98.6° (Epoch: 20 October)

Event Time Altitude Azimuth Distance (km) Brightness Sun altitude
Exits shadow 12:54:58 13° 239° (WSW) 2,192 4.2 -24.5°
Drops below altitude 10° 12:56:21 10° 225° (SW) 2,439 4.6 -24.4°
Sets 12:59:48 0° 202° (SSW) 3,392 5.6 -24.1°
